Precipitable_Water
1.28 1.26 1.26 1.24 1.23 1.21 1.21 1.19 1.21 1.21 1.19 1.19 1.17 1.17 1.17 1.17 1.13 1.09 1.07 1.03 0.97 0.91 0.85 0.83 0.81 0.81 0.81 0.83 0.87 0.89 0.91 0.89 0.87 0.87 0.85 0.85 0.85 0.85 0.85 0.85 0.87 0.89 0.89 0.91 0.91 0.91 0.91 0.91 0.89 0.89 0.89 0.89 0.91 0.93 0.95 0.93 0.93 0.95 0.95 0.95 0.89 0.85 0.81 0.79 0.75 0.73 0.71 0.67 0.65
1.26 1.26 1.24 1.23 1.21 1.21 1.21 1.19 1.19 1.19 1.19 1.19 1.19 1.19 1.19 1.17 1.11 1.07 1.01 0.97 0.95 0.91 0.85 0.81 0.79 0.79 0.81 0.81 0.85 0.87 0.85 0.85 0.83 0.83 0.83 0.83 0.83 0.85 0.85 0.85 0.87 0.87 0.89 0.89 0.89 0.89 0.89 0.87 0.87 0.87 0.87 0.89 0.89 0.91 0.91 0.93 0.93 0.95 0.95 0.95 0.91 0.85 0.81 0.79 0.77 0.75 0.73 0.71 0.67
1.24 1.24 1.24 1.23 1.21 1.21 1.21 1.19 1.19 1.19 1.19 1.21 1.21 1.21 1.19 1.19 1.09 1.03 0.99 0.97 0.93 0.89 0.85 0.79 0.79 0.79 0.79 0.81 0.83 0.83 0.83 0.83 0.83 0.81 0.81 0.81 0.83 0.83 0.85 0.85 0.85 0.87 0.87 0.87 0.87 0.85 0.85 0.85 0.87 0.87 0.87 0.89 0.89 0.89 0.89 0.93 0.95 0.95 0.95 0.93 0.91 0.87 0.81 0.79 0.77 0.75 0.75 0.73 0.69
1.24 1.24 1.23 1.21 1.21 1.21 1.19 1.19 1.19 1.19 1.19 1.19 1.19 1.19 1.19 1.17 1.09 1.03 0.99 0.95 0.93 0.89 0.83 0.79 0.79 0.79 0.79 0.81 0.81 0.83 0.83 0.83 0.81 0.81 0.79 0.79 0.81 0.83 0.83 0.85 0.85 0.85 0.85 0.85 0.83 0.83 0.83 0.85 0.87 0.87 0.89 0.89 0.87 0.87 0.89 0.89 0.93 0.95 0.93 0.93 0.91 0.89 0.85 0.81 0.79 0.77 0.75 0.73 0.73
1.21 1.21 1.21 1.21 1.19 1.19 1.19 1.19 1.19 1.19 1.17 1.17 1.17 1.15 1.13 1.11 1.07 1.03 0.99 0.95 0.93 0.89 0.85 0.81 0.81 0.81 0.81 0.85 0.85 0.85 0.83 0.81 0.79 0.79 0.77 0.77 0.79 0.81 0.83 0.83 0.83 0.83 0.83 0.83 0.83 0.83 0.83 0.87 0.87 0.89 0.89 0.89 0.89 0.89 0.89 0.91 0.93 0.93 0.93 0.91 0.91 0.89 0.87 0.83 0.79 0.77 0.77 0.75 0.75
1.15 1.17 1.19 1.19 1.19 1.19 1.19 1.19 1.19 1.17 1.13 1.13 1.11 1.09 1.07 1.05 1.03 0.99 0.97 0.95 0.93 0.91 0.89 0.85 0.83 0.85 0.85 0.87 0.87 0.85 0.81 0.79 0.77 0.77 0.75 0.75 0.79 0.79 0.81 0.83 0.83 0.83 0.83 0.83 0.83 0.83 0.85 0.87 0.89 0.89 0.89 0.89 0.89 0.89 0.91 0.93 0.93 0.93 0.91 0.89 0.87 0.87 0.85 0.83 0.79 0.77 0.77 0.75 0.73
1.09 1.11 1.15 1.15 1.15 1.15 1.15 1.15 1.15 1.13 1.09 1.07 1.05 1.03 1.01 1.01 0.97 0.95 0.95 0.93 0.93 0.91 0.89 0.87 0.85 0.83 0.83 0.85 0.85 0.83 0.81 0.77 0.75 0.75 0.75 0.75 0.75 0.79 0.81 0.81 0.83 0.83 0.83 0.83 0.83 0.85 0.87 0.89 0.89 0.89 0.89 0.91 0.91 0.91 0.91 0.93 0.93 0.91 0.89 0.87 0.85 0.85 0.83 0.81 0.81 0.77 0.75 0.73 0.73
1.05 1.07 1.09 1.11 1.11 1.11 1.11 1.11 1.11 1.07 1.05 1.03 1.01 0.99 0.97 0.97 0.95 0.93 0.93 0.93 0.91 0.89 0.87 0.85 0.83 0.81 0.81 0.79 0.79 0.79 0.77 0.75 0.73 0.73 0.75 0.75 0.75 0.77 0.79 0.81 0.81 0.83 0.83 0.83 0.85 0.87 0.87 0.89 0.89 0.89 0.89 0.89 0.89 0.91 0.91 0.91 0.91 0.89 0.87 0.85 0.83 0.83 0.81 0.79 0.79 0.77 0.75 0.73 0.73
0.99 0.99 1.01 1.07 1.07 1.07 1.07 1.07 1.05 1.01 0.99 0.97 0.97 0.95 0.95 0.95 0.93 0.91 0.91 0.89 0.87 0.85 0.83 0.81 0.79 0.77 0.75 0.75 0.75 0.75 0.75 0.73 0.73 0.73 0.73 0.75 0.75 0.77 0.79 0.81 0.81 0.83 0.83 0.85 0.87 0.87 0.87 0.89 0.89 0.89 0.89 0.89 0.89 0.89 0.89 0.91 0.89 0.87 0.85 0.83 0.81 0.81 0.79 0.79 0.77 0.77 0.75 0.73 0.73
0.95 0.95 0.95 0.97 0.99 0.99 0.99 1.01 0.99 0.97 0.93 0.93 0.91 0.91 0.93 0.93 0.89 0.87 0.85 0.85 0.83 0.81 0.79 0.77 0.75 0.73 0.71 0.71 0.71 0.71 0.71 0.73 0.73 0.73 0.73 0.73 0.73 0.75 0.77 0.81 0.81 0.83 0.83 0.85 0.85 0.87 0.87 0.87 0.87 0.87 0.89 0.89 0.89 0.87 0.87 0.87 0.83 0.81 0.81 0.79 0.79 0.79 0.77 0.77 0.75 0.75 0.75 0.75 0.75
0.91 0.91 0.91 0.93 0.95 0.95 0.95 0.93 0.91 0.89 0.87 0.87 0.85 0.85 0.85 0.85 0.83 0.81 0.81 0.79 0.77 0.75 0.73 0.73 0.71 0.71 0.69 0.69 0.69 0.69 0.71 0.71 0.71 0.71 0.71 0.73 0.73 0.73 0.75 0.79 0.81 0.83 0.83 0.83 0.83 0.85 0.85 0.85 0.83 0.85 0.85 0.85 0.85 0.85 0.85 0.83 0.79 0.77 0.77 0.77 0.77 0.75 0.75 0.75 0.75 0.75 0.75 0.77 0.77
0.89 0.89 0.89 0.89 0.91 0.91 0.91 0.89 0.87 0.85 0.83 0.83 0.81 0.81 0.79 0.79 0.79 0.77 0.75 0.75 0.73 0.71 0.71 0.71 0.71 0.69 0.69 0.69 0.69 0.69 0.71 0.71 0.71 0.71 0.71 0.71 0.73 0.73 0.75 0.75 0.79 0.79 0.79 0.79 0.81 0.81 0.81 0.79 0.79 0.79 0.79 0.79 0.81 0.81 0.79 0.77 0.75 0.73 0.73 0.73 0.75 0.75 0.75 0.75 0.75 0.77 0.77 0.77 0.77
0.87 0.85 0.85 0.85 0.87 0.87 0.85 0.85 0.83 0.81 0.79 0.77 0.77 0.77 0.75 0.75 0.75 0.75 0.73 0.73 0.71 0.71 0.71 0.71 0.71 0.71 0.69 0.69 0.69 0.71 0.71 0.71 0.71 0.71 0.71 0.71 0.71 0.73 0.73 0.73 0.75 0.75 0.75 0.77 0.77 0.77 0.77 0.75 0.73 0.73 0.73 0.73 0.75 0.75 0.75 0.73 0.73 0.73 0.73 0.73 0.73 0.75 0.75 0.75 0.77 0.79 0.79 0.79 0.77
0.85 0.83 0.83 0.83 0.83 0.81 0.81 0.79 0.79 0.77 0.75 0.73 0.73 0.73 0.73 0.73 0.75 0.75 0.73 0.73 0.71 0.71 0.71 0.71 0.73 0.71 0.71 0.71 0.71 0.71 0.71 0.71 0.71 0.71 0.71 0.69 0.71 0.71 0.71 0.69 0.71 0.71 0.71 0.73 0.73 0.73 0.71 0.71 0.69 0.69 0.67 0.69 0.69 0.71 0.73 0.73 0.73 0.73 0.73 0.75 0.75 0.77 0.77 0.79 0.79 0.81 0.79 0.77 0.77
0.83 0.83 0.81 0.81 0.81 0.79 0.79 0.77 0.77 0.75 0.73 0.73 0.73 0.73 0.73 0.73 0.75 0.75 0.75 0.73 0.73 0.73 0.73 0.73 0.73 0.73 0.73 0.73 0.73 0.71 0.71 0.71 0.71 0.69 0.69 0.69 0.67 0.67 0.67 0.69 0.69 0.69 0.69 0.71 0.71 0.71 0.71 0.69 0.69 0.67 0.67 0.67 0.69 0.71 0.73 0.73 0.75 0.75 0.75 0.77 0.77 0.79 0.81 0.81 0.83 0.83 0.83 0.81 0.79
0.81 0.81 0.81 0.79 0.79 0.77 0.77 0.75 0.75 0.75 0.73 0.73 0.73 0.73 0.73 0.73 0.75 0.75 0.75 0.75 0.73 0.75 0.75 0.73 0.73 0.73 0.73 0.73 0.73 0.71 0.71 0.71 0.69 0.69 0.67 0.67 0.67 0.67 0.69 0.69 0.71 0.71 0.71 0.71 0.73 0.73 0.73 0.73 0.71 0.71 0.71 0.71 0.71 0.73 0.75 0.75 0.77 0.77 0.77 0.79 0.81 0.81 0.83 0.85 0.85 0.85 0.87 0.85 0.83
0.79 0.79 0.79 0.77 0.77 0.75 0.75 0.75 0.75 0.75 0.73 0.75 0.75 0.75 0.75 0.75 0.75 0.75 0.75 0.75 0.75 0.75 0.73 0.73 0.73 0.73 0.73 0.73 0.71 0.71 0.71 0.69 0.69 0.69 0.69 0.69 0.69 0.71 0.71 0.73 0.73 0.75 0.75 0.75 0.75 0.75 0.77 0.77 0.77 0.77 0.75 0.75 0.75 0.77 0.79 0.79 0.79 0.79 0.79 0.79 0.81 0.83 0.85 0.85 0.87 0.89 0.89 0.89 0.89
0.83 0.81 0.81 0.81 0.79 0.77 0.75 0.75 0.75 0.73 0.73 0.73 0.75 0.75 0.77 0.77 0.77 0.77 0.77 0.77 0.77 0.75 0.75 0.73 0.73 0.73 0.73 0.73 0.73 0.71 0.71 0.71 0.69 0.71 0.71 0.73 0.73 0.75 0.77 0.77 0.77 0.79 0.79 0.79 0.79 0.79 0.79 0.81 0.81 0.81 0.81 0.81 0.81 0.83 0.83 0.83 0.83 0.83 0.83 0.81 0.83 0.83 0.85 0.87 0.89 0.91 0.91 0.91 0.91
0.85 0.85 0.85 0.83 0.83 0.81 0.81 0.79 0.79 0.77 0.75 0.75 0.75 0.75 0.77 0.77 0.77 0.77 0.79 0.79 0.79 0.77 0.77 0.75 0.75 0.75 0.75 0.73 0.75 0.75 0.73 0.73 0.73 0.73 0.73 0.75 0.77 0.79 0.79 0.81 0.81 0.81 0.83 0.83 0.83 0.83 0.83 0.83 0.83 0.85 0.85 0.85 0.87 0.89 0.87 0.87 0.87 0.87 0.87 0.85 0.85 0.87 0.87 0.91 0.91 0.93 0.93 0.93 0.93
0.85 0.85 0.85 0.85 0.85 0.85 0.85 0.83 0.83 0.81 0.81 0.79 0.79 0.79 0.77 0.77 0.77 0.77 0.77 0.79 0.79 0.79 0.79 0.77 0.77 0.77 0.77 0.75 0.77 0.77 0.77 0.77 0.77 0.77 0.77 0.79 0.81 0.81 0.83 0.83 0.83 0.85 0.85 0.87 0.85 0.85 0.87 0.87 0.87 0.89 0.89 0.89 0.91 0.93 0.93 0.91 0.91 0.91 0.91 0.91 0.91 0.91 0.91 0.93 0.95 0.95 0.95 0.95 0.97
0.83 0.83 0.83 0.85 0.85 0.85 0.85 0.85 0.85 0.85 0.85 0.85 0.85 0.85 0.83 0.83 0.83 0.81 0.79 0.79 0.79 0.79 0.79 0.77 0.77 0.77 0.77 0.77 0.77 0.79 0.79 0.79 0.79 0.79 0.79 0.83 0.83 0.85 0.87 0.87 0.87 0.89 0.89 0.89 0.89 0.89 0.89 0.91 0.91 0.93 0.95 0.97 0.97 0.99 0.99 0.97 0.97 0.97 0.95 0.95 0.95 0.93 0.95 0.99 0.99 0.99 1.01 1.01 1.03
0.81 0.81 0.83 0.83 0.83 0.85 0.85 0.87 0.87 0.87 0.87 0.87 0.87 0.87 0.87 0.87 0.87 0.87 0.85 0.85 0.83 0.83 0.81 0.79 0.79 0.79 0.79 0.79 0.79 0.81 0.83 0.83 0.83 0.85 0.85 0.87 0.87 0.89 0.91 0.91 0.91 0.91 0.91 0.91 0.93 0.93 0.93 0.95 0.97 0.97 0.99 1.03 1.03 1.03 1.03 1.03 1.03 1.01 1.01 0.99 0.99 0.99 0.99 1.05 1.07 1.07 1.07 1.07 1.09
0.79 0.79 0.81 0.81 0.83 0.83 0.85 0.85 0.87 0.87 0.85 0.85 0.85 0.85 0.85 0.87 0.87 0.87 0.89 0.91 0.89 0.89 0.89 0.89 0.87 0.85 0.83 0.83 0.83 0.85 0.85 0.87 0.89 0.89 0.91 0.91 0.91 0.91 0.91 0.93 0.93 0.93 0.93 0.93 0.95 0.97 0.97 0.99 1.01 1.03 1.05 1.05 1.05 1.03 1.03 1.03 1.03 1.03 1.03 1.03 1.03 1.07 1.09 1.11 1.11 1.11 1.11 1.11 1.13
0.77 0.77 0.79 0.79 0.81 0.81 0.81 0.83 0.83 0.85 0.83 0.83 0.83 0.83 0.83 0.83 0.85 0.85 0.87 0.91 0.91 0.93 0.93 0.95 0.95 0.95 0.95 0.93 0.89 0.89 0.89 0.91 0.91 0.91 0.91 0.93 0.93 0.93 0.93 0.93 0.93 0.91 0.93 0.95 0.97 0.99 1.01 1.01 1.03 1.05 1.05 1.05 1.03 1.03 1.03 1.03 1.03 1.05 1.05 1.07 1.09 1.11 1.13 1.13 1.13 1.13 1.13 1.13 1.13
0.75 0.75 0.75 0.77 0.77 0.77 0.79 0.79 0.81 0.81 0.81 0.81 0.81 0.81 0.81 0.81 0.83 0.83 0.85 0.87 0.89 0.91 0.93 0.95 0.97 0.99 1.01 1.01 0.99 0.99 0.99 0.97 0.95 0.93 0.93 0.93 0.93 0.93 0.93 0.93 0.93 0.93 0.95 0.97 0.99 1.01 1.03 1.03 1.05 1.09 1.11 1.05 1.03 1.03 1.03 1.03 1.07 1.09 1.11 1.11 1.11 1.13 1.13 1.13 1.13 1.13 1.13 1.13 1.13
0.73 0.73 0.73 0.73 0.73 0.73 0.75 0.75 0.77 0.79 0.79 0.81 0.81 0.81 0.81 0.81 0.81 0.81 0.83 0.85 0.87 0.89 0.91 0.93 0.93 0.97 0.99 1.01 0.99 1.01 1.01 1.01 1.01 1.01 0.99 0.97 0.97 0.97 0.97 0.97 0.99 0.99 1.01 1.03 1.05 1.05 1.07 1.09 1.13 1.15 1.15 1.11 1.07 1.05 1.03 1.05 1.09 1.11 1.13 1.13 1.11 1.11 1.11 1.11 1.11 1.13 1.13 1.13 1.13
0.71 0.71 0.71 0.71 0.71 0.71 0.71 0.71 0.73 0.75 0.77 0.77 0.79 0.79 0.79 0.81 0.81 0.81 0.81 0.81 0.83 0.85 0.87 0.89 0.91 0.93 0.93 0.93 0.95 0.97 0.99 1.01 1.03 1.03 1.03 1.03 1.01 1.01 1.01 1.01 1.01 1.01 1.01 1.03 1.05 1.05 1.07 1.09 1.11 1.15 1.17 1.17 1.13 1.09 1.07 1.07 1.07 1.09 1.09 1.11 1.09 1.09 1.11 1.11 1.11 1.11 1.11 1.13 1.13
0.73 0.73 0.73 0.71 0.71 0.69 0.69 0.69 0.71 0.73 0.73 0.75 0.77 0.77 0.79 0.79 0.81 0.79 0.79 0.79 0.81 0.83 0.83 0.85 0.87 0.89 0.89 0.89 0.91 0.93 0.95 0.99 0.99 1.01 1.01 1.01 1.01 1.01 1.01 1.01 1.01 1.01 1.01 1.01 1.03 1.05 1.07 1.11 1.11 1.13 1.15 1.15 1.15 1.13 1.11 1.09 1.09 1.09 1.09 1.09 1.11 1.11 1.11 1.11 1.11 1.11 1.11 1.11 1.13
0.75 0.77 0.77 0.75 0.75 0.73 0.71 0.71 0.71 0.73 0.73 0.75 0.75 0.77 0.79 0.79 0.79 0.79 0.79 0.79 0.79 0.79 0.81 0.81 0.85 0.85 0.85 0.85 0.87 0.89 0.91 0.95 0.97 0.97 0.97 0.97 0.97 0.97 0.97 0.97 0.97 0.97 0.99 1.01 1.03 1.05 1.07 1.11 1.13 1.13 1.13 1.13 1.13 1.13 1.13 1.13 1.13 1.13 1.13 1.11 1.13 1.13 1.13 1.13 1.13 1.11 1.11 1.11 1.11
0.77 0.79 0.79 0.79 0.79 0.77 0.77 0.75 0.75 0.75 0.75 0.77 0.79 0.79 0.81 0.81 0.81 0.81 0.81 0.83 0.83 0.85 0.89 0.91 0.89 0.89 0.89 0.89 0.89 0.91 0.91 0.91 0.93 0.95 0.95 0.95 0.95 0.93 0.95 0.95 0.95 0.97 0.97 0.99 1.03 1.07 1.09 1.11 1.13 1.13 1.15 1.15 1.15 1.15 1.15 1.13 1.13 1.13 1.13 1.11 1.11 1.11 1.11 1.11 1.11 1.11 1.11 1.11 1.11
0.79 0.79 0.81 0.83 0.81 0.79 0.79 0.79 0.79 0.79 0.79 0.81 0.81 0.81 0.81 0.83 0.83 0.83 0.85 0.87 0.91 0.93 0.93 0.93 0.93 0.93 0.95 0.95 0.97 0.95 0.95 0.95 0.95 0.95 0.93 0.93 0.93 0.93 0.93 0.93 0.95 0.95 0.97 0.99 1.01 1.05 1.11 1.13 1.13 1.15 1.15 1.17 1.17 1.17 1.17 1.15 1.15 1.13 1.13 1.11 1.11 1.11 1.11 1.11 1.11 1.11 1.11 1.11 1.11
0.79 0.81 0.81 0.83 0.83 0.83 0.85 0.85 0.83 0.83 0.83 0.83 0.81 0.81 0.83 0.83 0.83 0.85 0.87 0.89 0.91 0.93 0.93 0.93 0.93 0.93 0.95 0.97 0.97 0.99 0.99 0.99 0.97 0.97 0.97 0.97 0.95 0.95 0.97 0.97 0.99 0.99 1.01 1.01 1.03 1.07 1.09 1.15 1.15 1.17 1.17 1.17 1.17 1.17 1.15 1.15 1.15 1.13 1.13 1.11 1.11 1.11 1.11 1.11 1.11 1.11 1.11 1.09 1.09
0.79 0.81 0.81 0.83 0.83 0.85 0.87 0.89 0.89 0.87 0.87 0.85 0.83 0.83 0.83 0.83 0.83 0.85 0.87 0.87 0.89 0.91 0.93 0.93 0.93 0.93 0.93 0.95 0.97 0.97 0.99 0.99 0.99 0.99 0.99 1.01 1.01 1.01 1.01 1.03 1.03 1.05 1.05 1.05 1.07 1.09 1.11 1.15 1.17 1.17 1.17 1.17 1.17 1.17 1.15 1.13 1.13 1.11 1.09 1.09 1.09 1.11 1.13 1.13 1.13 1.11 1.11 1.09 1.09
0.81 0.81 0.81 0.81 0.83 0.85 0.87 0.91 0.91 0.91 0.89 0.87 0.87 0.85 0.85 0.85 0.85 0.85 0.85 0.87 0.87 0.89 0.91 0.93 0.93 0.93 0.95 0.95 0.97 0.97 0.99 0.99 0.99 1.01 1.01 1.03 1.03 1.03 1.05 1.05 1.07 1.07 1.07 1.07 1.09 1.09 1.11 1.13 1.15 1.15 1.17 1.15 1.15 1.15 1.13 1.11 1.11 1.09 1.07 1.07 1.09 1.11 1.11 1.13 1.13 1.11 1.09 1.09 1.05
0.79 0.81 0.81 0.81 0.83 0.85 0.87 0.91 0.93 0.91 0.91 0.89 0.89 0.87 0.87 0.87 0.87 0.87 0.87 0.87 0.89 0.89 0.91 0.93 0.93 0.95 0.95 0.97 0.97 0.99 0.99 0.99 1.01 1.01 1.03 1.03 1.05 1.05 1.05 1.05 1.07 1.07 1.07 1.07 1.07 1.09 1.09 1.11 1.13 1.13 1.15 1.13 1.13 1.13 1.11 1.09 1.07 1.07 1.05 1.07 1.07 1.07 1.09 1.09 1.09 1.09 1.07 1.05 1.01
0.79 0.79 0.81 0.81 0.81 0.83 0.87 0.89 0.91 0.91 0.91 0.89 0.89 0.89 0.89 0.89 0.89 0.89 0.89 0.89 0.89 0.89 0.89 0.91 0.93 0.93 0.95 0.95 0.97 0.99 1.01 1.01 1.01 1.03 1.03 1.05 1.05 1.03 1.03 1.03 1.05 1.05 1.05 1.07 1.07 1.07 1.09 1.11 1.11 1.11 1.13 1.13 1.11 1.11 1.09 1.07 1.05 1.03 1.03 1.03 1.03 1.03 1.03 1.03 1.03 1.03 1.03 0.99 0.97
0.77 0.77 0.79 0.79 0.79 0.81 0.85 0.89 0.91 0.91 0.89 0.89 0.91 0.91 0.91 0.91 0.89 0.91 0.91 0.91 0.89 0.89 0.89 0.91 0.91 0.93 0.93 0.95 0.97 0.99 1.01 1.03 1.05 1.05 1.05 1.03 1.03 1.03 1.01 1.03 1.03 1.03 1.03 1.05 1.05 1.07 1.07 1.09 1.11 1.11 1.11 1.11 1.11 1.09 1.07 1.03 1.01 0.99 0.97 0.97 0.97 0.97 0.97 0.97 0.99 0.99 0.97 0.93 0.93
0.73 0.73 0.73 0.75 0.77 0.77 0.81 0.85 0.87 0.89 0.89 0.89 0.91 0.91 0.91 0.93 0.91 0.91 0.91 0.91 0.91 0.89 0.89 0.91 0.91 0.93 0.95 0.97 0.99 1.01 1.03 1.05 1.07 1.07 1.05 1.03 1.03 1.01 1.01 1.01 1.01 1.01 1.03 1.03 1.05 1.07 1.07 1.09 1.09 1.11 1.11 1.11 1.09 1.09 1.05 0.99 0.95 0.93 0.93 0.93 0.93 0.93 0.93 0.95 0.95 0.93 0.93 0.89 0.89
0.67 0.67 0.69 0.71 0.73 0.75 0.79 0.83 0.85 0.87 0.89 0.89 0.89 0.91 0.93 0.93 0.93 0.93 0.93 0.93 0.93 0.91 0.91 0.91 0.93 0.95 0.97 0.99 1.01 1.03 1.05 1.07 1.07 1.07 1.05 1.03 1.03 1.03 1.01 0.99 0.99 1.01 1.01 1.03 1.03 1.05 1.07 1.09 1.09 1.11 1.11 1.11 1.09 1.07 1.03 0.95 0.91 0.89 0.89 0.89 0.89 0.89 0.89 0.91 0.89 0.89 0.87 0.85 0.83
0.63 0.65 0.67 0.69 0.73 0.75 0.77 0.81 0.85 0.87 0.89 0.89 0.89 0.91 0.91 0.93 0.95 0.95 0.95 0.97 0.95 0.95 0.95 0.95 0.95 0.99 1.01 1.03 1.05 1.05 1.05 1.07 1.07 1.07 1.05 1.03 1.03 1.01 1.01 0.99 0.99 0.99 0.99 0.99 1.01 1.01 1.03 1.05 1.07 1.07 1.07 1.07 1.05 1.01 0.95 0.91 0.87 0.85 0.83 0.83 0.83 0.83 0.83 0.85 0.85 0.83 0.81 0.81 0.81
0.60 0.61 0.65 0.69 0.73 0.75 0.77 0.81 0.83 0.87 0.89 0.91 0.91 0.91 0.93 0.95 0.97 0.97 0.99 0.99 0.99 0.99 0.99 0.99 0.99 1.03 1.05 1.05 1.05 1.03 1.03 1.03 1.03 1.03 1.03 1.03 1.01 0.99 0.97 0.95 0.95 0.93 0.93 0.93 0.95 0.97 0.99 1.01 1.03 1.03 1.03 1.01 0.99 0.93 0.89 0.85 0.83 0.81 0.79 0.79 0.79 0.79 0.79 0.79 0.81 0.81 0.81 0.81 0.81
Wind_Speed
22 22 22 23 22 22 23 23 23 25 26 27 27 28 29 29 29 29 29 30 29 28 28 27 27 28 29 31 31 31 31 32 31 31 31 30 30 30 30 30 30 30 30 30 31 30 30 30 29 28 28 28 28 29 29 29 28 28 27 28 28 28 28 29 29 30 30 30 30
22 22 22 22 22 22 22 22 22 23 24 25 26 27 27 28 28 28 28 28 27 26 26 26 27 28 29 30 31 31 31 31 31 30 30 30 30 30 30 30 31 31 31 31 30 30 29 29 29 28 28 28 28 29 29 29 29 28 28 28 28 28 28 29 29 30 30 31 31
21 21 21 21 21 20 20 20 21 22 23 24 25 25 26 26 27 27 27 26 26 25 25 25 26 28 28 29 30 30 31 31 30 30 30 30 30 30 31 31 31 31 31 30 30 30 29 29 28 28 28 28 29 29 29 29 29 28 28 28 28 28 29 29 30 30 31 31 32
19 19 19 20 20 20 20 20 21 22 22 22 23 23 24 25 25 26 25 25 25 25 25 25 26 27 28 29 29 30 30 30 30 30 30 30 30 31 31 31 30 30 30 30 30 29 29 29 28 28 28 29 29 29 29 29 29 29 28 29 29 29 29 30 30 30 31 31 32
18 18 18 19 20 20 20 20 21 21 21 21 21 22 23 24 24 24 24 23 24 24 25 25 26 26 27 28 28 29 29 29 29 29 30 30 30 30 30 30 30 30 29 29 29 29 29 29 29 29 29 29 29 30 30 30 30 30 29 29 29 30 30 30 31 31 31 32 32
18 18 18 19 20 21 20 20 21 21 20 20 20 21 23 24 24 24 23 23 23 24 25 25 25 25 26 26 27 27 28 28 28 29 29 29 30 30 30 29 29 29 29 29 29 29 29 29 29 29 29 30 30 30 30 30 31 31 31 30 30 31 31 31 31 32 32 33 33
18 18 18 19 20 21 21 21 21 20 20 20 21 22 23 24 24 24 23 23 22 23 23 24 24 24 25 25 25 26 27 27 28 28 29 29 29 29 29 29 29 29 29 29 29 29 29 30 30 30 30 30 30 31 31 31 31 31 32 32 31 31 31 32 32 32 33 33 34
18 18 18 19 20 21 22 21 21 20 20 20 21 22 23 24 24 23 23 22 22 22 22 22 23 23 23 24 24 25 26 27 28 28 28 28 29 29 29 29 29 29 29 29 29 30 30 30 30 30 31 31 31 31 32 32 32 33 33 32 32 32 32 32 32 33 33 34 35
17 18 18 19 20 21 22 21 21 21 21 21 21 22 23 23 23 22 22 21 21 21 21 21 22 22 23 23 24 24 25 26 27 28 28 28 28 28 29 29 29 29 29 30 30 30 30 31 31 31 31 31 32 32 32 33 33 33 33 33 33 33 33 33 33 34 34 35 35
17 17 18 18 19 21 21 21 21 21 21 21 22 22 22 22 22 22 21 21 21 21 21 21 21 22 22 23 24 24 25 26 26 27 28 28 28 28 29 29 29 30 30 30 30 31 31 31 32 32 32 32 33 33 33 33 34 34 34 33 33 34 34 34 34 34 35 35 36
16 16 17 18 19 20 21 21 21 21 21 21 22 22 22 22 22 22 21 21 21 22 22 21 21 22 23 23 24 24 25 25 25 26 27 27 28 28 29 29 30 30 31 31 31 31 32 32 33 33 34 34 34 34 34 34 34 34 34 34 34 34 35 35 35 35 36 36 37
15 15 16 17 18 19 20 20 20 20 21 21 21 21 21 22 22 22 22 22 22 22 22 22 22 22 22 23 23 24 24 25 25 26 26 27 28 28 29 30 30 31 32 32 32 32 32 33 33 34 34 34 34 34 34 34 35 35 35 35 35 35 35 35 36 36 36 37 37
14 15 15 16 17 18 18 19 19 20 20 21 21 21 21 21 22 22 22 22 23 22 22 22 22 22 22 23 23 24 24 25 25 26 26 27 28 28 29 30 31 32 32 33 33 33 33 33 34 34 34 35 34 34 34 35 35 35 35 35 36 36 36 36 36 36 37 37 37
14 15 15 16 16 17 17 18 18 19 19 20 20 21 20 21 21 22 22 23 23 23 22 22 22 22 23 23 23 24 25 25 26 26 27 27 28 29 29 30 31 31 32 32 33 33 33 34 34 34 34 34 35 35 35 35 35 35 35 35 36 36 36 37 37 37 37 37 38
15 15 15 16 16 17 17 17 17 18 19 19 20 20 20 20 20 21 22 22 23 23 23 22 23 23 23 24 24 25 25 26 26 27 27 28 28 29 29 30 30 31 31 32 32 33 33 34 34 34 34 34 34 35 35 35 35 35 35 35 36 36 36 37 37 37 37 38 38
16 16 16 17 17 17 18 18 17 18 18 19 19 20 20 20 20 20 21 22 23 23 23 23 23 24 24 25 25 26 26 26 27 27 28 28 29 29 30 30 30 31 31 31 32 32 33 33 33 34 34 34 34 34 35 35 35 35 35 36 36 36 36 37 37 37 37 37 37
17 18 18 18 19 19 19 19 18 18 19 19 19 20 20 20 20 20 21 22 23 23 24 24 24 24 25 25 25 26 26 27 27 28 28 29 29 29 30 30 30 30 31 31 32 32 33 33 33 33 34 34 34 34 35 35 35 35 35 36 36 36 36 37 37 37 36 36 36
19 19 20 20 20 20 20 20 20 19 19 20 20 20 20 20 20 21 22 23 24 24 25 25 25 25 25 26 26 26 26 27 27 28 28 28 29 29 29 30 30 30 31 31 32 32 33 33 33 33 34 34 34 35 35 35 35 35 36 36 36 36 36 36 36 36 36 35 36
21 21 21 21 21 21 21 21 21 20 20 20 20 20 20 21 22 22 22 23 24 24 25 25 25 25 26 26 26 26 26 27 27 28 28 28 28 29 29 30 30 30 31 31 32 32 33 33 33 33 34 34 34 34 35 35 35 35 35 35 36 36 36 36 36 36 36 36 37
21 21 22 22 22 22 22 22 21 21 21 20 20 20 21 22 22 23 23 23 23 24 24 24 24 25 25 25 26 26 26 26 27 27 28 28 28 29 29 30 30 30 31 31 32 32 33 33 33 34 34 34 34 34 34 34 35 35 35 35 35 36 36 36 36 37 37 38 38
22 22 22 22 22 22 22 22 22 22 22 22 22 22 22 22 22 23 23 23 23 24 24 24 24 25 25 25 25 26 26 26 26 27 28 28 28 29 29 30 30 30 31 31 32 32 33 33 34 34 34 34 34 34 34 34 34 34 35 35 36 36 37 37 38 39 39 40 40
23 23 23 23 23 23 23 22 23 23 23 23 23 23 23 23 23 23 24 23 23 23 24 24 24 25 25 26 26 26 26 26 27 27 28 28 29 29 29 29 30 30 31 31 32 32 33 34 34 34 35 35 35 34 34 34 34 34 35 35 36 37 38 39 40 40 41 41 41
24 24 23 23 23 23 23 23 23 23 24 24 25 25 25 24 24 24 24 24 24 23 23 23 24 24 25 26 26 27 27 27 27 27 28 28 28 28 29 29 29 30 30 31 31 31 32 32 33 34 35 36 36 35 35 34 34 34 35 36 37 37 38 39 40 40 41 41 41
24 24 24 24 24 24 24 24 24 24 25 25 25 26 26 26 25 25 25 25 24 24 24 23 23 24 25 25 26 27 27 28 28 28 28 28 28 28 28 28 29 29 29 29 29 30 31 32 33 35 36 37 36 35 34 33 34 34 35 36 37 38 38 39 39 39 39 40 40
25 25 25 24 24 25 25 25 25 25 25 26 26 27 27 27 27 26 26 26 26 26 25 25 25 25 25 25 26 26 27 27 27 27 27 28 28 28 28 28 29 29 29 30 30 32 33 33 34 35 36 37 38 37 36 35 35 36 36 37 37 38 38 38 38 38 38 38 38
25 25 25 25 25 25 25 26 26 26 26 27 27 27 27 28 28 27 27 27 27 27 27 27 26 26 26 27 27 27 27 27 27 27 27 27 28 28 29 29 30 30 31 31 32 33 33 34 34 33 33 33 35 37 38 38 38 38 37 38 38 38 38 38 38 38 38 38 37
24 25 25 25 25 25 26 26 26 26 27 27 27 28 28 28 28 28 28 28 28 28 28 28 28 28 28 28 28 29 29 29 28 28 28 28 28 29 29 30 30 31 32 32 33 33 34 34 34 33 32 31 30 32 34 36 37 37 37 38 39 39 39 39 39 38 38 37 36
22 23 24 24 25 25 25 25 25 26 26 27 27 27 28 28 28 28 28 28 29 29 29 29 29 29 29 29 29 30 30 30 30 30 30 30 31 31 31 31 31 31 32 32 33 33 33 33 33 33 33 33 32 30 30 30 31 33 34 35 36 36 36 36 36 36 35 34 34
21 22 22 23 24 24 24 24 24 24 25 25 25 26 26 27 27 28 28 28 29 29 29 29 29 29 29 29 30 30 31 31 31 31 31 31 32 32 32 32 32 32 32 32 32 32 32 32 32 32 32 32 32 32 31 30 30 30 31 32 32 32 32 32 32 32 32 32 33
21 21 21 22 23 23 24 24 24 23 23 23 23 24 24 24 25 26 26 27 28 28 28 28 28 29 29 29 30 30 31 31 31 31 31 31 31 31 31 32 32 32 32 31 31 31 30 30 30 30 30 31 31 31 31 31 31 31 32 32 32 32 31 31 32 32 32 32 32
21 21 22 22 23 23 23 24 23 23 22 22 22 22 22 23 23 24 24 25 25 26 26 26 27 28 28 28 29 29 30 30 30 31 31 31 31 31 31 31 32 31 31 31 30 30 29 29 29 29 29 30 31 31 31 32 32 31 31 31 31 31 31 31 31 31 31 31 31
22 22 22 22 23 23 23 23 23 23 23 22 22 22 22 22 22 23 23 23 23 24 24 24 25 26 26 27 27 28 28 29 29 30 30 30 31 31 31 31 31 30 29 29 28 28 28 28 28 28 29 30 30 31 31 31 31 31 31 31 31 31 31 31 30 29 29 29 29
22 22 22 23 23 23 23 24 24 24 24 23 23 23 22 22 22 22 22 22 23 23 23 23 24 25 25 25 26 26 27 27 28 28 28 29 29 29 29 28 28 28 27 27 27 27 27 27 28 29 29 30 31 31 31 30 29 29 29 29 29 29 29 29 28 27 27 28 28
22 23 23 23 23 23 23 23 24 24 24 24 24 24 23 23 22 22 22 22 22 22 23 23 23 24 24 25 25 25 26 26 26 27 27 27 27 27 26 26 26 25 25 25 25 26 26 27 28 29 30 30 30 30 29 28 27 27 27 26 26 26 26 26 26 26 27 27 28
23 23 23 23 23 23 23 23 23 24 24 24 24 24 24 24 23 23 22 22 22 22 23 23 23 23 24 24 24 24 25 25 25 26 26 26 25 25 25 25 25 24 24 24 25 25 26 27 28 29 29 29 29 28 27 26 26 25 25 25 25 25 26 26 27 27 28 28 29
23 24 24 24 23 23 23 23 23 23 23 24 24 24 24 24 24 23 23 22 22 22 23 23 23 23 23 23 23 24 24 24 24 25 25 25 25 25 25 25 24 24 24 24 24 25 26 27 28 28 28 28 27 26 26 26 25 25 25 25 26 26 27 27 28 29 29 30 30
24 24 24 24 23 23 23 22 22 22 23 23 23 23 24 24 24 24 23 23 23 23 23 23 23 23 23 23 23 23 23 23 24 24 24 25 25 25 25 24 24 23 23 23 24 25 26 27 27 27 27 27 26 26 26 26 26 26 26 27 27 27 28 28 29 29 30 30 31
23 23 23 23 23 23 22 22 22 22 22 23 23 23 23 23 23 23 23 23 23 23 23 23 23 23 23 23 23 23 23 23 23 23 24 24 24 24 24 23 23 23 23 24 25 26 26 26 26 26 26 26 26 26 26 27 27 27 27 27 28 28 28 28 29 29 30 30 30
23 23 23 22 22 22 22 22 21 22 22 22 22 22 22 22 22 22 23 23 23 24 24 23 23 23 23 22 22 22 22 22 22 23 23 23 23 22 21 21 21 21 22 23 24 25 25 26 26 26 26 26 26 26 27 27 27 27 27 27 28 28 28 29 29 29 29 30 30
21 21 21 20 20 21 21 21 21 21 21 21 21 21 21 21 21 22 22 22 23 23 23 23 23 22 22 21 21 20 20 21 21 21 21 21 20 20 19 19 19 20 20 21 22 23 24 25 25 25 26 26 26 26 26 27 27 28 28 28 28 28 28 29 29 29 29 29 29
19 19 19 19 19 19 20 20 20 20 20 20 20 20 20 20 20 20 21 21 22 22 22 22 21 21 20 20 19 19 19 19 20 19 19 18 17 17 17 17 17 18 18 19 20 21 22 23 24 25 25 26 26 26 27 27 28 28 29 29 29 29 28 28 28 28 28 28 29
Wind_Direction
204 206 208 210 213 215 217 217 216 215 214 215 216 217 218 219 220 219 217 215 215 217 219 220 219 218 217 216 215 215 215 214 214 214 216 217 219 220 221 223 224 224 225 226 228 229 231 232 233 234 235 235 235 236 238 239 241 242 241 240 241 242 244 245 246 248 249 250 252
205 207 209 211 213 214 215 215 214 213 213 213 215 215 216 217 216 214 211 211 212 215 217 217 216 215 214 213 213 212 211 212 213 215 217 219 220 221 222 223 224 225 226 227 229 231 232 233 234 234 235 235 237 238 240 242 244 244 243 242 243 244 246 247 248 249 250 252 253
206 208 209 210 211 210 210 209 208 208 209 210 211 212 212 212 210 207 206 207 210 211 213 212 212 211 210 210 210 209 209 211 213 215 217 219 220 221 222 223 224 225 227 228 230 231 233 233 234 234 235 237 238 239 242 244 245 246 245 245 246 247 248 249 250 251 252 253 254
207 208 209 208 206 204 203 202 203 203 204 205 206 207 207 206 203 202 202 204 206 207 208 208 207 207 207 208 208 208 209 211 213 216 218 219 221 221 222 223 225 226 228 229 231 232 233 233 234 235 236 238 239 241 243 245 246 247 247 247 248 249 250 251 251 252 253 254 255
207 207 206 204 202 199 198 198 199 200 201 201 201 202 201 200 199 198 198 200 201 203 204 204 204 205 206 207 207 208 210 212 214 216 218 220 221 222 223 224 225 227 228 230 231 232 233 233 235 236 237 239 241 242 244 246 247 248 249 249 250 250 251 252 252 253 254 255 256
206 205 203 201 198 196 195 197 198 198 198 198 198 199 198 197 196 196 196 197 199 200 202 203 203 204 205 206 207 209 211 213 215 217 219 220 221 222 223 224 226 227 229 230 231 232 233 234 235 237 239 240 242 244 245 246 248 249 250 251 251 252 252 253 254 254 255 256 257
204 202 201 199 197 195 195 197 198 197 197 196 197 197 197 197 196 196 196 197 198 199 201 202 203 204 205 206 208 210 213 215 217 219 220 221 222 222 224 225 226 228 229 231 232 233 234 235 237 239 240 242 244 245 246 247 249 250 251 252 252 253 254 254 255 256 256 257 258
202 201 199 197 195 194 194 196 196 196 195 194 195 196 196 197 197 197 197 197 198 199 200 202 203 204 206 207 209 212 215 217 219 220 221 222 222 223 225 226 228 229 230 232 233 234 236 237 239 241 242 244 246 247 248 249 250 251 252 253 254 254 255 256 256 257 257 258 258
199 199 198 196 194 193 193 194 194 194 193 193 193 194 195 196 196 196 197 197 198 199 200 202 204 207 209 210 212 214 217 219 220 221 222 223 224 225 226 228 229 231 232 234 236 237 238 240 241 243 244 246 247 248 249 250 251 252 253 254 255 256 256 257 257 258 258 259 259
196 196 195 194 193 192 192 193 193 193 192 192 192 193 194 195 196 197 197 198 199 201 202 205 207 210 212 214 216 217 218 220 221 222 223 225 226 227 229 230 232 233 235 237 238 239 241 242 244 245 246 247 248 250 251 251 252 253 254 255 256 256 257 258 258 259 259 260 261
193 193 193 192 191 190 191 192 193 193 193 193 193 194 195 197 198 199 200 201 202 205 207 209 211 214 216 217 218 219 220 221 223 224 225 227 228 230 231 233 235 236 238 239 240 242 243 244 245 246 247 248 249 250 251 252 253 254 255 256 257 257 258 258 259 260 261 261 262
192 191 191 191 190 190 190 192 193 194 195 195 196 197 198 200 201 203 204 205 207 209 211 213 215 216 217 219 219 220 221 223 224 226 228 229 231 232 234 235 237 238 240 241 242 243 244 245 246 247 248 249 250 251 252 253 253 254 255 256 257 258 259 259 260 261 262 263 263
191 190 190 190 190 190 191 193 194 196 197 198 199 200 201 203 205 206 208 210 211 213 215 216 217 218 219 220 221 222 223 225 227 228 230 232 233 234 236 237 239 240 241 242 243 244 245 246 247 248 249 250 251 252 253 253 254 255 256 257 258 259 260 261 261 262 263 264 264
192 191 191 191 191 192 193 194 196 197 198 199 201 202 204 206 208 210 212 213 215 216 218 219 220 221 222 223 224 225 226 228 229 231 232 233 235 236 238 239 240 241 242 243 244 245 246 247 248 249 250 251 252 253 254 254 255 256 257 258 259 260 261 262 263 263 264 265 266
197 196 196 196 196 197 198 198 199 200 201 202 203 205 206 208 210 212 214 216 218 220 221 222 224 225 226 226 227 228 229 231 232 233 235 236 237 238 240 241 241 242 243 244 245 246 247 248 249 251 252 252 253 254 255 256 257 258 259 260 260 261 262 263 264 265 265 266 267
203 203 203 203 203 203 204 204 205 205 206 207 207 208 210 211 213 215 217 219 221 223 225 226 227 228 229 230 230 231 233 234 235 237 238 239 240 241 242 242 243 244 245 245 246 247 248 250 251 252 253 254 255 256 257 257 258 259 260 261 262 263 264 264 265 265 266 267 267
206 206 207 207 207 208 208 209 209 210 211 212 213 214 215 216 217 219 221 223 225 227 228 229 230 230 231 232 233 234 235 237 238 240 241 242 242 243 244 244 245 246 246 247 247 248 249 250 252 253 254 255 256 257 258 259 259 260 261 262 263 264 265 265 265 266 266 267 268
207 208 209 209 209 210 210 211 212 213 215 216 217 219 220 222 224 225 227 229 230 232 232 233 233 234 234 234 235 236 237 239 240 241 242 243 244 245 245 246 246 247 247 248 248 249 250 251 252 254 255 256 257 258 259 259 260 261 262 262 263 264 264 265 265 266 266 267 268
211 211 211 212 212 212 212 213 214 215 217 219 221 224 226 229 231 232 234 235 237 238 239 240 240 239 239 238 238 239 240 241 242 243 244 244 245 246 246 247 247 248 248 249 250 251 252 253 254 254 255 256 257 258 259 259 260 261 261 262 263 263 264 264 265 265 266 267 268
217 217 217 217 217 216 216 216 217 217 219 220 222 226 229 233 235 237 239 241 242 244 245 246 246 246 245 244 243 243 243 244 245 245 246 246 247 247 248 248 249 249 250 251 252 253 254 255 255 255 256 256 257 258 258 259 260 260 261 261 262 263 263 264 265 265 266 267 268
223 223 223 223 222 222 222 222 222 222 222 223 225 227 229 232 234 236 238 241 243 245 246 247 248 248 248 247 247 246 247 247 247 247 248 248 248 249 249 250 250 251 252 253 254 256 256 257 257 257 257 258 258 258 259 259 260 261 261 262 262 263 263 264 265 265 266 267 269
226 226 227 227 227 227 227 227 227 227 227 228 229 230 232 233 235 236 237 238 240 242 244 245 246 247 247 247 248 248 248 249 249 249 249 250 250 250 250 251 251 252 254 255 257 258 259 260 260 261 261 261 261 261 262 262 263 263 264 264 264 264 265 266 267 268 268 269 271
228 228 228 229 230 230 231 231 231 231 231 232 232 233 235 236 237 238 238 239 239 240 241 243 245 246 246 247 247 248 249 250 250 251 251 251 251 251 251 252 253 254 256 258 259 261 262 264 266 266 267 266 265 265 265 265 265 265 266 266 266 267 268 269 269 270 270 271 272
229 229 230 231 232 233 233 234 234 234 235 235 235 236 237 238 239 240 241 241 241 242 242 244 245 246 247 248 248 249 249 250 251 251 252 253 253 253 254 255 256 257 258 260 261 263 265 268 270 271 272 271 269 267 266 265 265 266 267 267 268 269 270 270 271 271 272 272 273
232 232 233 234 234 235 236 236 237 237 238 238 237 238 238 239 240 242 243 243 244 244 245 246 247 248 249 250 251 251 251 251 251 251 252 253 254 255 256 258 259 260 261 261 262 263 265 268 271 272 273 272 270 268 265 264 265 267 268 269 270 270 271 271 272 272 273 273 275
235 235 236 236 237 237 238 238 239 240 241 241 241 240 240 241 241 243 244 245 246 247 248 248 249 250 252 253 254 255 255 255 254 254 254 254 255 256 258 259 260 261 262 262 262 263 265 268 271 272 273 272 271 269 267 266 267 268 270 271 272 273 274 274 274 274 274 275 275
236 237 237 238 238 239 239 240 241 242 242 243 243 243 243 243 243 243 244 246 247 249 250 251 252 253 254 255 256 257 258 258 257 257 257 257 258 258 259 261 262 262 263 263 263 265 267 269 271 272 273 274 274 273 271 269 269 270 272 273 275 275 275 275 275 275 276 275 275
235 236 237 238 238 239 239 240 241 242 243 244 244 245 245 245 245 245 245 246 248 249 251 252 254 255 257 258 258 259 259 259 260 260 260 260 261 261 261 262 263 263 264 264 265 266 268 269 271 272 273 274 275 275 274 272 271 272 272 273 274 274 275 275 276 276 276 275 274
233 234 236 237 238 239 240 240 241 241 242 243 244 245 246 246 247 247 247 248 249 250 251 252 254 255 257 258 259 260 260 261 261 262 262 262 262 262 263 263 264 264 265 265 266 267 268 269 271 271 272 273 274 275 275 274 273 272 272 272 273 273 273 273 273 274 274 273 272
231 232 234 235 237 239 240 240 241 242 243 244 244 245 246 246 247 248 248 249 249 250 251 252 253 254 255 257 258 259 260 261 261 262 262 263 263 263 264 264 265 265 265 265 265 266 267 268 270 270 271 272 274 275 276 276 276 275 275 275 275 274 274 273 273 272 272 272 272
231 232 233 234 236 238 239 240 241 242 243 244 245 245 246 246 247 248 249 250 250 251 251 251 252 252 253 255 256 257 258 259 260 261 262 262 263 263 264 264 265 265 265 264 264 265 266 267 268 270 271 272 274 276 277 277 277 277 277 277 277 276 276 276 276 275 274 274 273
232 232 232 234 235 237 238 239 240 241 242 243 244 245 246 247 248 249 250 251 252 252 252 252 252 252 253 254 255 256 257 258 258 259 260 261 262 262 263 263 264 264 264 263 263 263 264 266 268 270 271 273 276 277 277 277 277 277 277 277 277 277 278 278 278 277 277 277 276
233 233 233 234 235 236 237 238 238 239 240 242 243 245 246 247 248 250 251 252 253 253 253 253 253 253 253 253 254 255 256 257 258 259 260 260 261 262 263 263 264 264 264 262 261 262 263 266 268 271 273 274 276 277 277 276 277 278 278 279 278 278 278 278 278 279 280 280 279
235 235 236 236 237 237 238 238 238 238 238 240 241 243 245 247 249 250 251 252 252 253 252 252 252 252 253 253 253 254 255 257 258 258 259 260 261 261 262 263 265 264 263 261 261 262 265 268 270 272 274 275 276 276 276 276 277 279 280 280 280 279 278 277 278 279 280 280 280
238 238 239 239 239 239 239 239 238 237 238 238 240 242 244 246 248 250 251 251 252 252 252 252 252 252 252 253 253 253 254 255 256 257 258 258 259 259 260 261 263 262 261 260 261 264 267 270 272 274 274 275 275 275 275 275 277 279 280 281 280 279 278 278 279 280 280 280 280
241 241 242 242 242 241 240 239 238 238 238 239 240 241 243 245 247 249 250 251 252 252 253 253 253 253 252 252 252 253 253 254 254 255 256 256 256 257 258 259 261 261 261 261 264 267 270 272 273 274 274 273 273 273 274 275 276 278 279 280 280 280 280 280 281 281 281 281 281
244 244 244 244 243 243 241 240 239 238 238 239 240 242 243 245 247 248 250 251 252 253 253 253 253 253 253 252 252 252 253 253 254 254 255 256 256 257 258 259 261 262 264 265 267 270 271 272 273 273 273 272 272 272 273 274 276 277 279 280 280 281 281 282 282 281 281 281 281
247 246 245 245 244 243 242 240 239 238 239 240 241 243 244 245 246 248 250 251 252 253 253 254 254 254 254 254 253 254 254 254 254 254 255 257 258 259 260 261 263 266 269 269 270 271 272 272 273 272 272 272 272 273 274 275 276 278 279 280 281 281 282 282 281 281 281 281 281
249 248 247 245 244 242 240 239 238 238 239 240 242 243 245 246 247 248 249 250 252 253 254 254 255 255 255 254 254 255 255 255 255 256 257 259 260 261 262 264 267 271 273 273 273 273 273 274 274 273 273 273 274 275 276 277 278 279 280 280 281 281 281 281 281 281 281 281 281
250 248 246 244 242 240 239 238 237 238 239 240 242 244 245 246 247 248 249 250 251 253 254 255 256 256 255 254 254 254 255 256 257 258 259 260 261 263 266 268 272 274 275 275 275 275 275 275 275 274 274 274 274 276 277 279 280 280 281 281 281 281 281 281 282 282 282 283 283
247 245 244 242 240 239 238 237 237 238 239 241 243 244 246 247 248 248 249 250 251 253 254 256 256 255 253 253 253 255 256 257 258 259 260 262 263 266 269 272 274 275 275 275 275 275 275 275 275 274 273 273 274 276 278 279 280 281 281 281 281 282 282 282 283 283 284 284 285